Weather History for K3I2 - April, 2013

Change the Weather History Date:

Monday, April 22, 2013

  Actual Average (KHTS) Record (KHTS)
Temperature  
Mean Temperature 54 °F 58 °F  
Max Temperature 73 °F 70 °F 91 °F (1920)
Min Temperature 35 °F 46 °F 31 °F (1983)
Degree Days  
Heating Degree Days 11 8  
Month to date heating degree days 237  
Since 1 July heating degree days 4334  
Cooling Degree Days 0 1  
Month to date cooling degree days 21  
Year to date cooling degree days 26  
Growing Degree Days 4 (Base 50)    
Moisture  
Dew Point 33 °F    
Average Humidity 49    
Maximum Humidity 87    
Minimum Humidity 22    
Precipitation  
Precipitation 0.00 in 0.12 in 2.14 in (1931)
Month to date precipitation 2.46  
Year to date precipitation 12.40  
Snow  
Snow 0.00 in - - ()
Month to date snowfall  
Since 1 September snowfall  
Snow Depth -    
Sea Level Pressure  
Sea Level Pressure 30.30 in    
Wind  
Wind Speed 1 mph (ESE)    
Max Wind Speed 9 mph    
Max Gust Speed -    
Visibility 10 miles    
Events      
T = Trace of Precipitation, MM = Missing Value Source: NWS Daily Summary

Daily Weather History Graph

Daily Weather History Graph

Search for Another Location

Airport or City:

Trip Planner

Search our weather history database for the weather conditions in past years. The results will help you decide how hot, cold, wet, or windy it might be!

Date:

Astronomy

Apr. 22, 2013 Rise Set
Actual Time 6:41 AM EDT 8:12 PM EDT
Civil Twilight 6:13 AM EDT 8:40 PM EDT
Nautical Twilight 5:39 AM EDT 9:14 PM EDT
Astronomical Twilight 5:04 AM EDT 9:50 PM EDT
Moon 5:01 PM EDT (4/22) 4:33 AM EDT (4/22)
Length of Visible Light 14h 26m
Length of Day
13h 30m
Waxing Gibbous, 87% of the Moon is Illuminated
Apr 22
Waxing Gibbous
Apr 25
Full
May 2
Last Quarter
May 9
New
May 18
First Quarter

Hourly Weather History & Observations

Time (EDT) Temp. Windchill Dew Point Humidity Pressure Visibility Wind Dir Wind Speed Gust Speed Precip Events Conditions
12:15 AM 42.8 °F - 26.6 °F 53% 30.40 in 10.0 mi Calm Calm - N/A   Clear
12:35 AM 42.8 °F - 26.6 °F 53% 30.40 in 10.0 mi Calm Calm - N/A   Clear
12:55 AM 41.0 °F - 26.6 °F 57% 30.39 in 10.0 mi Calm Calm - N/A   Clear
1:15 AM 41.0 °F - 26.6 °F 57% 30.39 in 10.0 mi Calm Calm - N/A   Clear
1:35 AM 41.0 °F - 26.6 °F 57% 30.38 in 10.0 mi Calm Calm - N/A   Clear
1:55 AM 41.0 °F - 28.4 °F 61% 30.38 in 10.0 mi Calm Calm - N/A   Clear
2:15 AM 41.0 °F - 28.4 °F 61% 30.37 in 10.0 mi Calm Calm - N/A   Clear
2:35 AM 41.0 °F - 30.2 °F 65% 30.37 in 10.0 mi Calm Calm - N/A   Clear
2:55 AM 39.2 °F - 28.4 °F 65% 30.37 in 10.0 mi Calm Calm - N/A   Clear
3:15 AM 39.2 °F - 28.4 °F 65% 30.36 in 10.0 mi Calm Calm - N/A   Clear
3:35 AM 39.2 °F - 28.4 °F 65% 30.36 in 10.0 mi Calm Calm - N/A   Clear
3:55 AM 37.4 °F - 28.4 °F 70% 30.36 in 10.0 mi Calm Calm - N/A   Clear
4:15 AM 37.4 °F - 30.2 °F 75% 30.36 in 10.0 mi Calm Calm - N/A   Clear
4:35 AM 37.4 °F - 30.2 °F 75% 30.36 in 10.0 mi Calm Calm - N/A   Clear
4:55 AM 35.6 °F - 30.2 °F 81% 30.36 in 10.0 mi Calm Calm - N/A   Clear
5:15 AM 35.6 °F - 30.2 °F 81% 30.36 in 10.0 mi Calm Calm - N/A   Clear
5:35 AM 35.6 °F - 30.2 °F 81% 30.36 in 10.0 mi Calm Calm - N/A   Clear
5:55 AM 35.6 °F - 32.0 °F 87% 30.36 in 10.0 mi Calm Calm - N/A   Clear
6:15 AM 35.6 °F 32.8 °F 32.0 °F 87% 30.36 in 10.0 mi East 3.5 mph - N/A   Clear
6:35 AM 35.6 °F - 32.0 °F 87% 30.36 in 10.0 mi Calm Calm - N/A   Clear
6:55 AM 35.6 °F - 32.0 °F 87% 30.36 in 10.0 mi Calm Calm - N/A   Clear
7:15 AM 35.6 °F - 32.0 °F 87% 30.37 in 10.0 mi Calm Calm - N/A   Clear
7:35 AM 37.4 °F - 33.8 °F 87% 30.37 in 10.0 mi Calm Calm - N/A   Clear
7:55 AM 41.0 °F - 35.6 °F 81% 30.38 in 10.0 mi Calm Calm - N/A   Clear
8:15 AM 46.4 °F 45.2 °F 33.8 °F 62% 30.38 in 10.0 mi East 3.5 mph - N/A   Clear
8:35 AM 50.0 °F - 33.8 °F 54% 30.38 in 10.0 mi ENE 3.5 mph - N/A   Clear
8:55 AM 51.8 °F - 33.8 °F 50% 30.38 in 10.0 mi Calm Calm - N/A   Clear
9:15 AM 53.6 °F - 33.8 °F 47% 30.38 in 10.0 mi SSE 9.2 mph - N/A   Clear
9:35 AM 55.4 °F - 33.8 °F 44% 30.38 in 10.0 mi SSE 5.8 mph - N/A   Clear
9:55 AM 57.2 °F - 33.8 °F 41% 30.38 in 10.0 mi SSE 4.6 mph - N/A   Clear
10:15 AM 59.0 °F - 35.6 °F 42% 30.38 in 10.0 mi SSE 6.9 mph - N/A   Clear
10:35 AM 60.8 °F - 33.8 °F 36% 30.38 in 10.0 mi East 6.9 mph - N/A   Clear
11:55 AM 68.0 °F - 37.4 °F 33% 30.35 in 10.0 mi SSW 5.8 mph - N/A   Clear
12:15 PM 66.2 °F - 35.6 °F 32% 30.34 in 10.0 mi South 5.8 mph - N/A   Clear
12:35 PM 66.2 °F - 33.8 °F 30% 30.33 in 10.0 mi Calm Calm - N/A   Clear
12:55 PM 68.0 °F - 35.6 °F 30% 30.32 in 10.0 mi Calm Calm - N/A   Clear
1:15 PM 69.8 °F - 35.6 °F 28% 30.31 in 10.0 mi South 5.8 mph - N/A   Clear
1:35 PM 69.8 °F - 33.8 °F 27% 30.29 in 10.0 mi ENE 6.9 mph - N/A   Clear
1:55 PM 69.8 °F - 33.8 °F 27% 30.29 in 10.0 mi Calm Calm - N/A   Clear
2:15 PM 69.8 °F - 32.0 °F 25% 30.28 in 10.0 mi Calm Calm - N/A   Clear
2:35 PM 71.6 °F - 33.8 °F 25% 30.27 in 10.0 mi Calm Calm - N/A   Clear
2:55 PM 71.6 °F - 32.0 °F 23% 30.26 in 10.0 mi Calm Calm - N/A   Clear
3:15 PM 71.6 °F - 32.0 °F 23% 30.25 in 10.0 mi North 5.8 mph - N/A   Clear
3:35 PM 73.4 °F - 33.8 °F 23% 30.24 in 10.0 mi Calm Calm - N/A   Scattered Clouds
3:55 PM 71.6 °F - 33.8 °F 25% 30.23 in 10.0 mi ENE 6.9 mph - N/A   Scattered Clouds
4:15 PM 71.6 °F - 33.8 °F 25% 30.22 in 10.0 mi Calm Calm - N/A   Clear
4:35 PM 71.6 °F - 32.0 °F 23% 30.22 in 10.0 mi East 5.8 mph - N/A   Clear
4:55 PM 73.4 °F - 32.0 °F 22% 30.21 in 10.0 mi East 5.8 mph - N/A   Clear
5:15 PM 71.6 °F - 32.0 °F 23% 30.21 in 10.0 mi Calm Calm - N/A   Clear
5:35 PM 71.6 °F - 32.0 °F 23% 30.20 in 10.0 mi Calm Calm - N/A   Clear
5:55 PM 71.6 °F - 32.0 °F 23% 30.20 in 10.0 mi Calm Calm - N/A   Clear
6:15 PM 71.6 °F - 32.0 °F 23% 30.20 in 10.0 mi East 5.8 mph - N/A   Clear
6:35 PM 69.8 °F - 32.0 °F 25% 30.19 in 10.0 mi ENE 6.9 mph - N/A   Clear
6:55 PM 69.8 °F - 32.0 °F 25% 30.19 in 10.0 mi East 4.6 mph - N/A   Clear
7:15 PM 69.8 °F - 32.0 °F 25% 30.19 in 10.0 mi ESE 5.8 mph - N/A   Clear
7:35 PM 69.8 °F - 32.0 °F 25% 30.19 in 10.0 mi East 3.5 mph - N/A   Clear
7:55 PM 64.4 °F - 32.0 °F 30% 30.19 in 10.0 mi Calm Calm - N/A   Clear
8:15 PM 60.8 °F - 33.8 °F 36% 30.19 in 10.0 mi Calm Calm - N/A   Clear
8:35 PM 59.0 °F - 33.8 °F 39% 30.19 in 10.0 mi Calm Calm - N/A   Clear
8:55 PM 57.2 °F - 35.6 °F 44% 30.20 in 10.0 mi Calm Calm - N/A   Clear
9:15 PM 55.4 °F - 35.6 °F 47% 30.20 in 10.0 mi Calm Calm - N/A   Clear
9:35 PM 53.6 °F - 35.6 °F 51% 30.20 in 10.0 mi Calm Calm - N/A   Clear
9:55 PM 51.8 °F - 35.6 °F 54% 30.20 in 10.0 mi Calm Calm - N/A   Clear
10:15 PM 50.0 °F - 37.4 °F 62% 30.20 in 10.0 mi Calm Calm - N/A   Clear
10:35 PM 50.0 °F - 35.6 °F 58% 30.20 in 10.0 mi Calm Calm - N/A   Clear
10:55 PM 48.2 °F - 37.4 °F 66% 30.20 in 10.0 mi Calm Calm - N/A   Clear
11:15 PM 46.4 °F - 37.4 °F 71% 30.20 in 10.0 mi Calm Calm - N/A   Clear
11:35 PM 46.4 °F - 37.4 °F 71% 30.20 in 10.0 mi Calm Calm - N/A   Clear
11:55 PM 46.4 °F - 37.4 °F 71% 30.20 in 10.0 mi Calm Calm - N/A   Clear